Bookmark and Share
Track history (hours):
 

Barfleur

Operator: Brittany Ferries

Last reported at 2014-Apr-24 08:30 UTC. Time now 2014-Apr-24 10:59 UTC.
Position N 50°27' W 001°49'.

Length 158 m; draft 5 m.

Type: Passenger vessel. MMSI: 227289000.

NotesDate/timePositionNaut miles runAvg speedWind from/ knotsBaromVisibWave heightAir tempDewpointWater temp
2014-Apr-24 08:30N 50°27' W 001°49'1516.3
2014-Apr-24 07:33N 50°41' W 001°57'2 1.8
2014-Apr-24 06:33N 50°42' W 001°59'1 0.8
2014-Apr-24 05:33N 50°42' W 001°58'6 6.2
2014-Apr-24 04:33N 50°37' W 001°52'1 1.0
2014-Apr-24 03:33N 50°37' W 001°54'2 2.1
2014-Apr-24 02:33N 50°36' W 001°51'9 8.8
2014-Apr-24 01:33N 50°28' W 001°47'9 9.1
2014-Apr-24 00:34N 50°19' W 001°45'12 0.8
2014-Apr-23 08:33N 50°30' W 001°51'1313.3
2014-Apr-23 07:33N 50°42' W 001°59'0 0.0
2014-Apr-23 06:32N 50°42' W 001°59'1 0.8
2014-Apr-23 05:33N 50°42' W 001°58'6 6.0
2014-Apr-23 04:33N 50°37' W 001°54'4 4.3
2014-Apr-23 03:33N 50°40' W 001°49'1 1.2
2014-Apr-23 02:33N 50°39' W 001°50'4 3.9
2014-Apr-23 01:33N 50°35' W 001°50'25 1.5
2014-Apr-22 09:33N 50°11' W 001°43'1716.8
2014-Apr-22 08:33N 50°27' W 001°51'1615.9
2014-Apr-22 07:33N 50°42' W 001°57'1 1.5
2014-Apr-22 06:32N 50°42' W 001°59'1 0.9
2014-Apr-22 05:33N 50°42' W 001°58'8 8.4
2014-Apr-22 04:33N 50°37' W 001°48'1 0.7
2014-Apr-22 03:33N 50°37' W 001°48'1 0.7
2014-Apr-22 02:33N 50°38' W 001°49'3 3.2
2014-Apr-22 01:33N 50°39' W 001°45'0 0.3
2014-Apr-22 00:33N 50°39' W 001°45'2 2.0
2014-Apr-21 23:33N 50°38' W 001°48'2 1.6
2014-Apr-21 22:33N 50°38' W 001°50'3 3.3
2014-Apr-21 21:33N 50°39' W 001°55'4 4.0
2014-Apr-21 20:33N 50°42' W 001°59'1110.9
2014-Apr-21 19:33N 50°33' W 001°52'1918.6
2014-Apr-21 18:33N 50°14' W 001°46'1918.8
2014-Apr-21 17:33N 49°56' W 001°41'19 2.3
2014-Apr-21 09:15N 50°14' W 001°49'1318.6
2014-Apr-21 08:33N 50°27' W 001°51'1615.1
2014-Apr-21 07:31N 50°42' W 001°59'1 0.5
2014-Apr-21 06:33N 50°42' W 001°59'0 0.0
2014-Apr-21 05:33N 50°42' W 001°59'0 0.0
2014-Apr-21 04:33N 50°42' W 001°59'0 0.0
2014-Apr-21 03:32N 50°42' W 001°59'0 0.0
2014-Apr-21 02:33N 50°42' W 001°59'0 0.0
2014-Apr-21 01:32N 50°42' W 001°59'0 0.0
2014-Apr-21 00:33N 50°42' W 001°59'0 0.0
2014-Apr-20 23:33N 50°42' W 001°59'0 0.0
2014-Apr-20 22:33N 50°42' W 001°59'0 0.0
2014-Apr-20 21:32N 50°42' W 001°59'1 1.3
2014-Apr-20 20:33N 50°42' W 001°58'1615.9
2014-Apr-20 19:33N 50°27' W 001°51'1918.9
2014-Apr-20 18:33N 50°08' W 001°47'25 2.4
2014-Apr-20 08:16N 50°33' W 001°52'1013.7
2014-Apr-20 07:33N 50°42' W 001°58'1 1.1
2014-Apr-20 06:31N 50°42' W 001°59'0 0.0
2014-Apr-20 05:33N 50°42' W 001°59'0 0.0
2014-Apr-20 04:23N 50°42' W 001°59'0 0.0
2014-Apr-20 03:33N 50°42' W 001°59'0 0.0
2014-Apr-20 02:33N 50°42' W 001°59'0 0.0
2014-Apr-20 01:33N 50°42' W 001°59'0 0.0
2014-Apr-20 00:33N 50°42' W 001°59'0 0.0
2014-Apr-19 23:33N 50°42' W 001°59'0 0.0
2014-Apr-19 22:33N 50°42' W 001°59'0 0.0
2014-Apr-19 21:34N 50°42' W 001°59'0 0.0
2014-Apr-19 20:33N 50°42' W 001°59'1010.4
2014-Apr-19 19:34N 50°33' W 001°52'1918.5
2014-Apr-19 18:33N 50°15' W 001°48'18 1.8
2014-Apr-19 08:24N 50°33' W 001°52'1112.4
2014-Apr-19 07:33N 50°42' W 001°59'0 0.1
2014-Apr-19 06:32N 50°42' W 001°59'0 0.0
2014-Apr-19 05:31N 50°42' W 001°59'0 0.0
2014-Apr-19 04:33N 50°42' W 001°59'0 0.0
2014-Apr-19 03:32N 50°42' W 001°59'0 0.0
2014-Apr-19 02:33N 50°42' W 001°59'0 0.0
2014-Apr-19 01:33N 50°42' W 001°59'0 0.0
2014-Apr-19 00:33N 50°42' W 001°59'0 0.0
2014-Apr-18 23:33N 50°42' W 001°59'0 0.0
2014-Apr-18 22:31N 50°42' W 001°59'0 0.0
2014-Apr-18 21:33N 50°42' W 001°59'0 0.1
2014-Apr-18 20:33N 50°42' W 001°60'1212.1
2014-Apr-18 19:34N 50°31' W 001°52'1 0.1
2014-Apr-18 08:33N 50°31' W 001°51'1211.9
2014-Apr-18 07:33N 50°42' W 001°59'1 0.4
2014-Apr-18 06:16N 50°42' W 001°59'0 0.0
2014-Apr-18 05:33N 50°42' W 001°59'0 0.0
2014-Apr-18 04:33N 50°42' W 001°59'0 0.0
2014-Apr-18 03:33N 50°42' W 001°59'0 0.0
2014-Apr-18 02:26N 50°42' W 001°59'0 0.0
2014-Apr-18 01:28N 50°42' W 001°59'0 0.0
2014-Apr-18 00:33N 50°42' W 001°59'0 0.0
2014-Apr-17 23:33N 50°42' W 001°59'0 0.0
2014-Apr-17 22:33N 50°42' W 001°59'0 0.0
2014-Apr-17 21:33N 50°42' W 001°59'0 0.1
2014-Apr-17 20:31N 50°42' W 001°59'1212.5
2014-Apr-17 19:33N 50°31' W 001°52'4118.2
2014-Apr-17 17:18N 49°51' W 001°43'26 3.2
2014-Apr-17 09:14N 50°16' W 001°48'1318.7
2014-Apr-17 08:33N 50°28' W 001°51'1514.3
2014-Apr-17 07:33N 50°42' W 001°58'1 0.7
2014-Apr-17 06:32N 50°42' W 001°59'1 1.3
2014-Apr-17 05:33N 50°42' W 001°57'1312.9
2014-Apr-17 04:33N 50°30' W 001°51'1010.1
2014-Apr-17 03:33N 50°20' W 001°49'10 9.6
2014-Apr-17 02:33N 50°10' W 001°47'10 9.9
2014-Apr-17 01:33N 50°01' W 001°43'1010.0
2014-Apr-17 00:32N 49°51' W 001°39'7 5.7
2014-Apr-16 23:17N 49°44' W 001°37'0 0.1
2014-Apr-16 22:28N 49°44' W 001°37'4 0.4
2014-Apr-16 11:10N 49°40' W 001°36'2018.3
2014-Apr-16 10:04N 50°00' W 001°40'1019.2
2014-Apr-16 09:34N 50°10' W 001°44'1918.7
2014-Apr-16 08:34N 50°28' W 001°50'1514.9
2014-Apr-16 07:33N 50°42' W 001°58'1 1.1
2014-Apr-16 06:32N 50°42' W 001°59'1 1.2
2014-Apr-16 05:32N 50°42' W 001°58'1313.1
2014-Apr-16 04:34N 50°30' W 001°51'1211.7
2014-Apr-16 03:33N 50°18' W 001°52'9 8.7
2014-Apr-16 02:28N 50°09' W 001°52'10 7.9
2014-Apr-16 01:16N 49°59' W 001°52'43 2.3
2014-Apr-15 06:34N 50°42' W 001°59'1 0.5
2014-Apr-15 05:34N 50°42' W 001°59'6 3.2
2014-Apr-15 03:34N 50°40' W 001°50'1 1.5
2014-Apr-15 02:34N 50°38' W 001°49'9 8.9
2014-Apr-15 01:33N 50°32' W 001°59'3 2.7
2014-Apr-15 00:31N 50°33' W 001°54'4 4.0
2014-Apr-14 23:33N 50°35' W 001°49'3 2.6
2014-Apr-14 22:34N 50°36' W 001°46'1 1.2
2014-Apr-14 21:34N 50°37' W 001°45'7 6.6
2014-Apr-14 20:34N 50°39' W 001°55'4 4.2
2014-Apr-14 19:33N 50°42' W 001°59'1414.4
2014-Apr-14 18:34N 50°29' W 001°51'1818.2
2014-Apr-14 17:34N 50°11' W 001°45'  

Dump ship's entire track history

sailing weather and tide predictions

Barfleur — FNIE — position and weather